Weather in Zamhlai

Ukraine / Chernihiv Region     51°48′52″N   31°09′42″E
temp.,
°C
wind,
m/s
gust,
m/s
humid.,
%
clouds,
%
prec.,
mm/h
press.,
hPa
HPBL,
m
20 april, tue
tue2000:00+5ne38955 0.0 1016189
03:00+5ne379399 0.0 1015290
06:00+5nne479299 0.0 1013300
09:00+7ne4686100 0.0 1013450
12:00+10ne456988 0.4 10111027
15:00+10nne6770100 1.1 10101170
18:00+9nne577878 0.2 1009940
21:00+7nnw4788100 0.3 1009492
21 april, wed
wed2100:00+6nnw4792100 0.3 1008401
03:00+6nw4793100 0.3 1008493
06:00+5nw4694100 0.3 1008580
09:00+6wnw4689100 0.5 1009748
12:00+6w4688100 0.2 1010840
15:00+8nw357162 0.3 1011887
18:00+10wnw136275 0.2 1011860
21:00+6ssw33858 0.3 101332
22 april, thu
thu2200:00+4ssw349266 0.0 101357
03:00+4s349310 0.0 101464
06:00+4s359496 0.0 101481
09:00+8s358889 0.0 1015262
12:00+13ssw566859 0.5 10141139
15:00+15sw57545 1.8 10141599
18:00+14ssw466672 1.3 1014720
21:00+10s3785100 1.9 1014127
23 april, fri
fri2300:00+8ssw4119128 0.0 1014225
03:00+7ssw499470 0.1 1014200
06:00+6wsw229692 0.2 101540
09:00+10sw248491 0.2 1014543
12:00+4nw6994100 0.1 1015398
15:00+3nw51096100 0.3 1016491
18:00+3wnw2493100 2.3 1017400
21:00+4ssw2492100 2.3 1017172
24 april, sat
sat2400:00+3sw3996100 0.0 1016236
03:00+1wsw38915 0.0 1015167
06:000w389698 0.0 1014234
09:00+2wnw5998100 0.7 1015483
12:00+4wnw81075100 0.9 10161279
15:00+7wnw8115179 1.3 10162176
18:00+6wnw7115864 0.6 10161692
21:00+2wsw357335 0.6 101778